South St. Paul, MN

1:32 PM CDT on May 24, 2018 (GMT -0500)
South Saint Paul Municipal-Fleming

Weather History for KSGS - April, 2013

Change the Weather History Date:

Friday, April 12, 2013

  Actual Average (WUND) Record (WUND)
Temperature  
Mean Temperature 32 °F -  
Max Temperature 36 °F - - (-1)
Min Temperature 29 °F - - (-1)
Degree Days  
Heating Degree Days 32    
Moisture  
Dew Point 28 °F    
Average Humidity 83    
Maximum Humidity 96    
Minimum Humidity 65    
Precipitation  
Precipitation 0.01 in - - ()
Sea Level Pressure  
Sea Level Pressure 29.73 in    
Wind  
Wind Speed 7 mph (NNW)    
Max Wind Speed 12 mph    
Max Gust Speed -    
Visibility 8 miles    
Events Snow    
Averages and records for this station are not official NWS values.
T = Trace of Precipitation, MM = Missing Value Source: NWS Daily Summary

Daily Weather History Graph

Daily Weather History Graph

Search for Another Location

Airport or City:

Astronomy

Apr. 12, 2013 Rise Set
Actual Time 6:32 AM CDT 7:53 PM CDT
Civil Twilight 6:02 AM CDT 8:24 PM CDT
Nautical Twilight 5:25 AM CDT 9:01 PM CDT
Astronomical Twilight 4:46 AM CDT 9:40 PM CDT
Moon 7:37 AM CDT (4/12) 10:31 PM CDT (4/12)
Length of Visible Light 14h 22m
Length of Day
13h 21m
Waxing Crescent, 5% of the Moon is Illuminated
Apr 12
Waxing Crescent
Apr 18
First Quarter
Apr 25
Full
May 2
Last Quarter
May 9
New

Hourly Weather History & Observations

Time (CDT) Temp. Windchill Dew Point Humidity Pressure Visibility Wind Dir Wind Speed Gust Speed Precip Events Conditions
12:12 AM 32.0 °F 25.6 °F 30.9 °F 96% 29.69 in 2.0 mi NNE 6.9 mph - N/A   Overcast
12:33 AM 31.8 °F 24.6 °F 30.7 °F 96% 29.69 in 5.0 mi NNE 8.1 mph - 0.01 in   Overcast
12:52 AM 32.0 °F 25.6 °F 30.6 °F 94% 29.69 in 10.0 mi NNE 6.9 mph - 0.01 in   Overcast
1:12 AM 32.0 °F 24.8 °F 30.0 °F 92% 29.68 in 10.0 mi NNE 8.1 mph - N/A   Overcast
1:33 AM 32.0 °F 24.2 °F 29.8 °F 92% 29.68 in 10.0 mi NNE 9.2 mph - N/A   Overcast
1:52 AM 32.0 °F 26.4 °F 29.5 °F 90% 29.68 in 10.0 mi NNE 5.8 mph - N/A Snow Light Snow
2:13 AM 31.8 °F 26.2 °F 29.3 °F 90% 29.67 in 10.0 mi NNE 5.8 mph - N/A   Overcast
2:32 AM 31.6 °F 26.0 °F 29.5 °F 92% 29.67 in 7.0 mi North 5.8 mph - N/A Snow Light Snow
2:53 AM 31.5 °F 24.9 °F 29.1 °F 91% 29.67 in 10.0 mi NNE 6.9 mph - N/A   Overcast
3:13 AM 31.5 °F 26.8 °F 28.8 °F 90% 29.67 in 10.0 mi NNE 4.6 mph - N/A   Overcast
3:32 AM 31.1 °F 24.5 °F 28.4 °F 90% 29.67 in 5.0 mi North 6.9 mph - N/A   Overcast
3:53 AM 30.9 °F 24.3 °F 28.4 °F 90% 29.67 in 5.0 mi North 6.9 mph - N/A   Overcast
4:13 AM 30.7 °F 24.1 °F 28.4 °F 91% 29.67 in 7.0 mi North 6.9 mph - N/A   Overcast
4:32 AM 30.2 °F 21.9 °F 28.0 °F 92% 29.67 in 3.0 mi North 9.2 mph - N/A   Overcast
4:53 AM 30.0 °F 23.2 °F 27.9 °F 92% 29.67 in 2.5 mi North 6.9 mph - N/A   Overcast
5:12 AM 29.7 °F 23.7 °F 27.5 °F 92% 29.67 in 3.0 mi North 5.8 mph - N/A   Overcast
5:32 AM 29.7 °F 22.0 °F 27.5 °F 92% 29.67 in 2.5 mi North 8.1 mph - N/A   Overcast
5:53 AM 29.3 °F 21.5 °F 27.5 °F 93% 29.67 in 2.0 mi North 8.1 mph - N/A   Overcast
6:12 AM 29.3 °F 22.3 °F 27.7 °F 94% 29.67 in 2.5 mi North 6.9 mph - N/A   Overcast
6:33 AM 29.3 °F 22.3 °F 27.5 °F 93% 29.67 in 3.0 mi North 6.9 mph - N/A   Overcast
6:53 AM 29.3 °F 23.2 °F 27.5 °F 93% 29.67 in 1.8 mi North 5.8 mph - N/A   Overcast
7:12 AM 29.3 °F 23.2 °F 27.5 °F 93% 29.67 in 2.5 mi North 5.8 mph - N/A   Overcast
7:33 AM 29.7 °F 23.7 °F 27.5 °F 92% 29.67 in 2.0 mi North 5.8 mph - N/A   Unknown
7:52 AM 29.8 °F 23.9 °F 27.5 °F 91% 29.68 in 3.0 mi North 5.8 mph - N/A   Overcast
8:13 AM 30.2 °F 24.3 °F 27.9 °F 91% 29.68 in 3.0 mi North 5.8 mph - N/A   Overcast
8:33 AM 30.6 °F 24.7 °F 27.5 °F 88% 29.68 in 4.0 mi North 5.8 mph - N/A   Overcast
8:52 AM 30.7 °F 26.0 °F 27.5 °F 88% 29.68 in 5.0 mi North 4.6 mph - N/A   Overcast
9:13 AM 31.1 °F 26.4 °F 27.5 °F 87% 29.69 in 10.0 mi North 4.6 mph - N/A   Overcast
9:53 AM 32.0 °F 27.5 °F 27.1 °F 82% 29.69 in 10.0 mi North 4.6 mph - N/A   Overcast
10:13 AM 32.0 °F 27.5 °F 26.8 °F 81% 29.69 in 10.0 mi NNW 4.6 mph - N/A   Overcast
10:32 AM 32.0 °F 27.5 °F 27.1 °F 82% 29.70 in 10.0 mi NNW 4.6 mph - N/A   Overcast
10:53 AM 32.0 °F 26.4 °F 26.8 °F 81% 29.70 in 10.0 mi NW 5.8 mph - N/A   Overcast
11:13 AM 32.0 °F 27.5 °F 27.1 °F 82% 29.71 in 10.0 mi NNW 4.6 mph - N/A   Overcast
11:32 AM 32.4 °F 26.0 °F 27.5 °F 82% 29.71 in 10.0 mi NW 6.9 mph - N/A   Overcast
11:53 AM 32.9 °F 26.7 °F 27.5 °F 81% 29.71 in 7.0 mi NW 6.9 mph - N/A Snow Light Snow
12:12 PM 32.9 °F 25.9 °F 27.5 °F 81% 29.71 in 10.0 mi NNW 8.1 mph - N/A   Overcast
12:33 PM 33.1 °F 28.7 °F 27.5 °F 80% 29.71 in 10.0 mi North 4.6 mph - N/A   Overcast
12:52 PM 33.3 °F 25.7 °F 27.5 °F 79% 29.71 in 10.0 mi NW 9.2 mph - N/A   Overcast
1:13 PM 34.0 °F 27.2 °F 27.0 °F 75% 29.72 in 10.0 mi NNW 8.1 mph - N/A   Overcast
1:33 PM 34.3 °F 27.7 °F 26.8 °F 74% 29.72 in 10.0 mi NW 8.1 mph - N/A   Overcast
1:52 PM 34.7 °F 28.8 °F 26.8 °F 73% 29.72 in 10.0 mi NW 6.9 mph - N/A   Overcast
2:13 PM 34.7 °F 28.1 °F 26.6 °F 72% 29.72 in 10.0 mi WNW 8.1 mph - N/A   Overcast
2:33 PM 34.9 °F 28.3 °F 27.1 °F 73% 29.73 in 10.0 mi NW 8.1 mph - N/A   Overcast
2:53 PM 35.4 °F 28.4 °F 26.6 °F 70% 29.73 in 10.0 mi NW 9.2 mph - N/A   Overcast
3:13 PM 35.8 °F 29.4 °F 26.6 °F 69% 29.73 in 10.0 mi WNW 8.1 mph - N/A   Overcast
3:32 PM 36.0 °F 29.6 °F 26.8 °F 69% 29.73 in 10.0 mi NW 8.1 mph - N/A   Overcast
3:53 PM 36.1 °F 29.3 °F 26.4 °F 68% 29.74 in 10.0 mi NNW 9.2 mph - N/A   Overcast
4:13 PM 36.3 °F 30.1 °F 26.4 °F 67% 29.74 in 10.0 mi NW 8.1 mph - N/A   Overcast
4:32 PM 36.3 °F 29.5 °F 25.7 °F 65% 29.75 in 10.0 mi NNW 9.2 mph - N/A   Overcast
4:53 PM 36.1 °F 28.2 °F 26.1 °F 67% 29.75 in 10.0 mi NNW 11.5 mph - N/A   Overcast
5:12 PM 36.0 °F 29.0 °F 25.5 °F 66% 29.76 in 10.0 mi NNW 9.2 mph - N/A   Overcast
5:33 PM 36.0 °F 29.6 °F 25.7 °F 66% 29.76 in 10.0 mi NNW 8.1 mph - N/A   Overcast
5:53 PM 36.0 °F 28.5 °F 26.6 °F 69% 29.77 in 10.0 mi NNW 10.4 mph - N/A Snow Light Snow
6:12 PM 35.1 °F 30.1 °F 28.4 °F 77% 29.78 in 4.0 mi NNW 5.8 mph - N/A Snow Light Snow
6:33 PM 34.7 °F 29.6 °F 28.4 °F 78% 29.78 in 7.0 mi NW 5.8 mph - N/A   Overcast
6:53 PM 34.7 °F 30.6 °F 29.3 °F 81% 29.78 in 5.0 mi WNW 4.6 mph - N/A   Light Drizzle
7:12 PM 33.1 °F 26.1 °F 30.0 °F 89% 29.79 in 1.2 mi NW 8.1 mph - N/A   Overcast
7:33 PM 33.1 °F 26.1 °F 29.5 °F 87% 29.80 in 3.0 mi NW 8.1 mph - N/A Snow Light Snow
7:52 PM 32.9 °F 27.5 °F 29.1 °F 86% 29.80 in 2.5 mi NNW 5.8 mph - N/A Snow Light Snow
8:13 PM 32.7 °F 27.3 °F 28.6 °F 85% 29.80 in 10.0 mi NW 5.8 mph - N/A   Overcast
8:33 PM 32.9 °F 28.5 °F 29.3 °F 87% 29.81 in 10.0 mi WNW 4.6 mph - N/A   Overcast
8:52 PM 32.9 °F 27.5 °F 29.7 °F 88% 29.81 in 10.0 mi NW 5.8 mph - N/A   Overcast
9:13 PM 32.9 °F 25.9 °F 25.7 °F 75% 29.82 in 10.0 mi NNW 8.1 mph - N/A   Overcast
9:32 PM 32.9 °F 26.7 °F 25.5 °F 74% 29.82 in 10.0 mi NNW 6.9 mph - N/A   Overcast
9:53 PM 32.4 °F 24.6 °F 25.9 °F 77% 29.83 in 10.0 mi NNW 9.2 mph - N/A   Overcast
10:13 PM 32.2 °F 26.7 °F 26.2 °F 79% 29.83 in 10.0 mi NW 5.8 mph - N/A   Overcast
10:32 PM 32.2 °F 26.7 °F 25.7 °F 77% 29.83 in 10.0 mi NNW 5.8 mph - N/A   Overcast
10:52 PM 32.0 °F 27.5 °F 26.6 °F 80% 29.83 in 10.0 mi NW 4.6 mph - N/A   Overcast
11:13 PM 32.0 °F 26.4 °F 27.0 °F 82% 29.83 in 10.0 mi NNW 5.8 mph - N/A   Overcast
11:32 PM 32.0 °F 27.5 °F 27.0 °F 82% 29.83 in 10.0 mi NNW 4.6 mph - N/A   Overcast
11:53 PM 32.0 °F 28.7 °F 27.1 °F 82% 29.84 in 10.0 mi NNW 3.5 mph - N/A   Overcast